Other Surface Observations
Issued by NWS Tucson, AZ

Home | Current Version | Previous Version | Text Only | Print | Product List | Glossary On
Versions: 1 2 3 4 5 6 7 8 9 10 11 12 13 14 15 16 17 18 19 20 21 22 23 24 25 26 27 28 29 30 31 32 33 34 35 36 37 38 39 40 41 42 43 44 45 46 47 48 49 50
000
SXUS55 KTWC 281715
OSOTWC

WEATHER ROUNDUP FOR SOUTHEAST ARIZONA
NATIONAL WEATHER SERVICE TUCSON AZ
1015 AM MST WED SEP 28 2016

AZZ504>506-514-281815-
LOCATION       SKY/WX    TMP DP  RH WIND       PRES   REMARKS
TUCSON         PTSUNNY   79  58  48 SE13      30.07S
DAVIS-MONTHAN  MOSUNNY   78  56  46 E8        30.05F
CHILDRENS PARK N/A      N/A N/A  58 SE5               PIMA CO DEQ
ALVERNON/22ND  N/A       75 N/A N/A SE6               PIMA CO DEQ
CHERRY/GLENN   N/A       76 N/A N/A S0                PIMA CO DEQ
TANGERINE      N/A       74 N/A N/A SE1               PIMA CO DEQ
CONTL RANCH    N/A       73  60  64 E4                PIMA CO DEQ
GRANT/1ST      N/A       76  57  52 SE6               PIMA CO DEQ
CRAYCROFT/22ND N/A       75  58  55 SE5               PIMA CO DEQ
GOLFLINKS/KOLB N/A       74  57  56 SE4               PIMA CO DEQ
AJO/12TH       N/A       75  59  57 SE11              PIMA CO DEQ
FAIRGROUNDS    N/A       73 N/A N/A SE17              PIMA CO DEQ
SAGUARO        N/A       76  61  60 W3                *SABINO CYN
SAN CARLOS     N/A       76  59  55 W4G21             *SAN CARLOS
GREEN VALLEY   N/A       72  60  66 S2                PIMA CO DEQ
HORSE CAMP CYN N/A       69  56  64 E17G23            *ARAVAIPA CYN
RINCON MTNS    NOT AVBL
$$

AZZ509>511-281815-
LOCATION       SKY/WX    TMP DP  RH WIND       PRES   REMARKS
SAFFORD        CLOUDY    69  59  70 SE8       30.16F
STRAY HORSE    N/A       54  51  89 E4                *
TRAIL CABIN    NOT AVBL
BLACK HILLS    NOT AVBL
DRY LAKE       N/A       53  51  94 SE5G10            *NATANES MTNS
NOON CREEK     NOT AVBL
COLUMBINE      N/A       47  46  96 NE3               *PINALENO MTNS
GUTHRIE        N/A       57  53  86 E9G13             *SW OF GUTHRIE
$$

AZZ502-503-513-281815-
LOCATION       SKY/WX    TMP DP  RH WIND       PRES   REMARKS
NOGALES        MOSUNNY   79  57  46 VRB5      30.13R
SELLS          N/A       78  62  58 NE3               *
SASABE         N/A       76  61  59 CALM              *ALTAR VLY
HOPKINS        N/A       66  52  60 E11G23            *SANTA RITA MTNS
CARR CYN       N/A       70  55  60 SE4G10            *W OF HEREFORD
$$

AZZ507-508-512-281815-
LOCATION       SKY/WX    TMP DP  RH WIND       PRES   REMARKS
SIERRA VISTA   MOSUNNY   71  56  57 E10       30.22S
DOUGLAS        MOSUNNY   75  55  49 E10       30.18S
EMPIRE MTNS    NOT AVBL
MULESHOE RANCH N/A       68  54  62 NE10G23           *PRESERVE
HEADQUARTERS   NOT AVBL
$$

.............................NOTES.............................
THIS IS AN AUTOMATED COLLECTIVE WITH MINIMAL QUALITY CONTROL.
PIMA CO DEQ SITES HAVE NONSTANDARD WIND SENSOR HEIGHTS.
PIMA CO DEQ SITES DO NOT REPORT WIND GUSTS.
* INDICATES WIND SENSORS LOCATED AT 20 FEET INSTEAD OF 33 FEET.
..............................KEY..............................
SKY/WX - SKY CONDITION/WEATHER
TMP    - TEMPERATURE IN FAHRENHEIT
DP     - DEWPOINT IN FAHRENHEIT
RH     - RELATIVE HUMIDITY IN PERCENT
WIND   - DIRECTION AND SPEED IN MILES PER HOUR (MPH)
VRB    - VARIABLE WIND DIRECTION
PRES   - MEAN SEA LEVEL PRESSURE IN INCHES OF MERCURY
         F - FALLING PRESSURE   R - RISING PRESSURE
         S - STEADY PRESSURE
VSB    - VISIBILITY IN MILES
HX     - HEAT INDEX IN FAHRENHEIT
WCI    - WIND CHILL INDEX IN FAHRENHEIT
N/A    - NOT AVAILABLE
AFB    - AIR FORCE BASE
         DAVIS-MONTHAN IS DAVIS-MONTHAN AIR FORCE BASE
CYN    - CANYON
MTNS   - MOUNTAINS
NCA    - NATIONAL CONSERVATION AREA
NR     - NEAR
VLY    - VALLEY
CONTL  - CONTINENTAL
PIMA CO DEQ - PIMA COUNTY DEPT OF ENVIRONMENTAL QUALITY



USA.gov is the U.S. government's official web portal to all federal, state and local government web resources and services.